Station GTLM4 - Grand Traverse Light, MI Image indicating link to RSS feed of recent meteorological observations for station GTLM4


Conditions at GTLM4 as of
(3:40 pm EDT)
1940 GMT on 04/16/2024:
     

Click on the graph icon in the table below to see a time series plot of the last five days of that observation.

5-day plot - Wind Direction Wind Direction (WDIR):ENE ( 60 deg true )
5-day plot - Wind Speed Wind Speed (WSPD): 17.1 kts
5-day plot - Wind Gust Wind Gust (GST): 19.0 kts
5-day plot - Atmospheric Pressure Atmospheric Pressure (PRES):30.09 in
5-day plot - Air Temperature Air Temperature (ATMP): 49.3 °F
5-day plot - Wind Chill Wind Chill (CHILL): 42.8 °F
5-day plot - Wind Speed at 10 Meters Wind Speed at 10 meters (WSPD10M): 17.5 kts
5-day plot - Wind Speed at 20 Meters Wind Speed at 20 meters (WSPD20M): 17.5 kts
5-day plot -  Wind Speed, Wind Gust and Atmospheric Pressure Combined plot of Wind Speed, Gust, and Air Pressure
Previous observations
TIME
(EDT)
5-day plot - Wind Direction
WDIR
 
5-day plot - Wind Speed
WSPD
kts
5-day plot - Wind Gust
GST
kts
5-day plot - Wave Height
WVHT
ft
5-day plot - Dominant Wave Period
DPD
sec
5-day plot - Average Wave Period
APD
sec
5-day plot - Mean Wave Direction
MWD
 
5-day plot - Atmospheric Pressure
PRES
in
5-day plot - Pressure Tendency
PTDY
in
5-day plot - Air Temperature
ATMP
°F
5-day plot - Water Temperature
WTMP
°F
5-day plot - Dew Point
DEWP
°F
5-day plot - Salinity
SAL
psu
5-day plot - Visibility
VIS
nmi
5-day plot - Tide (above MLLW)
TIDE
ft
2024-04-16 03:30 pmENE 15.0 19.0----30.10- 48.4-----
2024-04-16 03:20 pmENE 15.9 19.0----30.10- 48.2-----
2024-04-16 03:10 pmENE 18.1 19.0----30.11- 47.7-----
2024-04-16 03:00 pm NE 15.0 18.1----30.12- 46.9-----
2024-04-16 02:50 pm NE 15.0 17.1----30.14- 48.0-----
2024-04-16 02:40 pm NE 14.0 17.1----30.14- 47.7-----
2024-04-16 02:30 pm NE 15.9 18.1----30.14- 47.5-----
2024-04-16 02:20 pm NE 15.0 15.9----30.15- 48.4-----
2024-04-16 02:10 pmENE 13.0 15.0----30.16- 49.3-----
2024-04-16 02:00 pm NE 11.1 15.0----30.16-0.04 48.0-----
2024-04-16 01:50 pm NE 6.0 13.0----30.17- 47.8-----
2024-04-16 01:40 pmENE 9.9 14.0----30.17- 48.7-----
2024-04-16 01:30 pmENE 13.0 15.9----30.17- 49.6-----
2024-04-16 01:20 pm NE 14.0 15.9----30.17- 47.5-----
2024-04-16 01:10 pmENE 14.0 15.9----30.17- 47.5-----
2024-04-16 01:00 pm NE 14.0 15.0----30.18-0.03 47.5-----
2024-04-16 12:50 pmENE 13.0 15.0----30.18- 47.7-----
2024-04-16 12:40 pmENE 12.0 19.0----30.18- 47.8-----
2024-04-16 12:30 pmENE 7.0 8.9----30.20- 46.8-----
2024-04-16 12:20 pmENE 7.0 9.9----30.20- 46.4-----
2024-04-16 12:10 pm NE 2.9 6.0----30.22- 45.3-----
2024-04-16 12:00 pm NE 4.1 8.0----30.22-0.01 45.7-----
2024-04-16 11:50 am NE 8.0 8.0----30.22- 44.2-----
2024-04-16 11:40 amENE 4.1 5.1----30.21- 45.5-----
2024-04-16 11:30 amENE 4.1 6.0----30.21- 45.5-----
2024-04-16 11:20 amENE 4.1 6.0----30.21- 45.3-----
2024-04-16 11:10 amENE 6.0 7.0----30.20- 45.3-----
2024-04-16 11:00 am E 6.0 8.0----30.20-0.02 45.0-----
2024-04-16 10:50 am E 7.0 7.0----30.20- 43.2-----
2024-04-16 10:40 amENE 4.1 6.0----30.21- 42.6-----
2024-04-16 10:30 amENE 4.1 6.0----30.21- 43.0-----
2024-04-16 10:20 amENE 4.1 5.1----30.22- 42.1-----
2024-04-16 10:10 am E 4.1 6.0----30.21- 42.8-----
2024-04-16 10:00 amENE 6.0 8.9----30.21+0.01 43.2-----
2024-04-16 09:50 amENE 8.0 8.9----30.21- 42.3-----
2024-04-16 09:40 amENE 6.0 7.0----30.22- 41.5-----
2024-04-16 09:30 amENE 6.0 7.0----30.23- 43.3-----
2024-04-16 09:20 am E 6.0 7.0----30.22- 43.5-----
2024-04-16 09:10 am E 6.0 7.0----30.22- 42.4-----
2024-04-16 09:00 am E 5.1 7.0----30.23+0.04 42.1-----
2024-04-16 08:50 am E 5.1 7.0----30.22- 41.0-----
2024-04-16 08:40 am E 5.1 6.0----30.22- 41.0-----
2024-04-16 08:30 am E 4.1 6.0----30.22- 40.3-----
2024-04-16 08:20 am E 5.1 6.0----30.22- 39.7-----
2024-04-16 08:10 am E 6.0 6.0----30.22- 39.7-----
2024-04-16 08:00 am E 4.1 4.1----30.22+0.03 39.9-----
2024-04-16 07:50 am E 4.1 5.1----30.21- 39.6-----
2024-04-16 07:40 am E 4.1 6.0----30.20- 38.5-----
2024-04-16 07:30 am E 4.1 6.0----30.20- 37.8-----
2024-04-16 07:20 am E 4.1 6.0----30.20- 37.4-----
2024-04-16 07:10 am E 5.1 6.0----30.19- 36.3-----
2024-04-16 07:00 am E 4.1 5.1----30.20+0.02 35.8-----
2024-04-16 06:50 am E 5.1 7.0----30.19- 36.3-----
2024-04-16 06:40 am E 5.1 6.0----30.18- 37.0-----
2024-04-16 06:30 am E 5.1 6.0----30.19- 36.5-----
2024-04-16 06:20 am E 4.1 6.0----30.19- 36.7-----
2024-04-16 06:10 am E 5.1 6.0----30.18- 36.3-----
2024-04-16 06:00 am E 5.1 6.0----30.19+0.01 36.1-----
2024-04-16 05:50 amENE 5.1 5.1----30.19- 35.4-----
2024-04-16 05:40 amESE 1.9 4.1----30.19- 36.0-----
2024-04-16 05:30 am E 4.1 5.1----30.19- 36.3-----
2024-04-16 05:20 amENE 4.1 4.1----30.19- 35.8-----
2024-04-16 05:10 amENE 2.9 2.9----30.19- 36.7-----
2024-04-16 05:00 am E 1.9 2.9----30.19+0.02 35.2-----
2024-04-16 04:50 amENE 1.9 1.9----30.19- 35.2-----
2024-04-16 04:40 am E 1.0 1.0----30.19- 35.6-----
2024-04-16 04:30 am- 0.0 1.9----30.19- 35.8-----
2024-04-16 04:20 am E 1.9 4.1----30.18- 36.5-----
2024-04-16 04:10 am E 2.9 5.1----30.18- 37.9-----
2024-04-16 04:00 am E 4.1 6.0----30.18+0.01 39.9-----
2024-04-16 03:50 am E 5.1 6.0----30.18- 41.2-----
2024-04-16 03:40 am E 5.1 6.0----30.18- 41.4-----
2024-04-16 03:30 am E 6.0 7.0----30.18- 41.7-----
2024-04-16 03:20 am E 6.0 7.0----30.18- 41.9-----
2024-04-16 03:10 am E 6.0 8.0----30.18- 41.2-----
2024-04-16 03:00 am E 6.0 7.0----30.18+0.03 40.8-----
2024-04-16 02:50 am E 5.1 7.0----30.18- 39.9-----
2024-04-16 02:40 am E 5.1 7.0----30.18- 38.8-----
2024-04-16 02:30 am E 5.1 7.0----30.17- 39.2-----
2024-04-16 02:20 am E 5.1 7.0----30.18- 37.2-----
2024-04-16 02:10 amESE 4.1 5.1----30.17- 37.2-----
2024-04-16 02:00 am E 5.1 5.1----30.17+0.04 38.3-----
2024-04-16 01:50 am E 4.1 7.0----30.17- 39.0-----
2024-04-16 01:40 am E 6.0 8.0----30.17- 38.3-----
2024-04-16 01:30 amESE 5.1 6.0----30.18- 38.3-----
2024-04-16 01:20 am E 5.1 6.0----30.17- 38.5-----
2024-04-16 01:10 am E 4.1 5.1----30.17- 38.3-----
2024-04-16 01:00 am E 2.9 6.0----30.17+0.04 37.6-----
2024-04-16 12:50 am E 2.9 5.1----30.17- 37.8-----
2024-04-16 12:40 amENE 2.9 5.1----30.17- 38.7-----
2024-04-16 12:30 am NE 5.1 6.0----30.16- 39.6-----
2024-04-16 12:20 am NE 5.1 8.9----30.16- 41.5-----
2024-04-16 12:10 am NE 6.0 8.0----30.16- 40.3-----
2024-04-16 12:00 am E 2.9 5.1----30.15+0.04 38.7-----
2024-04-15 11:50 pm E 4.1 7.0----30.15- 39.4-----
2024-04-15 11:40 pmENE 6.0 8.9----30.15- 40.5-----
2024-04-15 11:30 pmENE 7.0 8.9----30.14- 40.6-----
2024-04-15 11:20 pmENE 5.1 7.0----30.14- 38.7-----
2024-04-15 11:10 pm E 2.9 7.0----30.14- 39.2-----
2024-04-15 11:00 pmENE 6.0 7.0----30.13+0.03 39.4-----
2024-04-15 10:50 pmENE 5.1 6.0----30.14- 40.3-----
2024-04-15 10:40 pm NE 5.1 7.0----30.14- 40.8-----
2024-04-15 10:30 pm NE 4.1 7.0----30.14- 41.0-----
2024-04-15 10:20 pm NE 4.1 6.0----30.14- 41.4-----
2024-04-15 10:10 pm NE 5.1 7.0----30.14- 41.9-----
2024-04-15 10:00 pm NE 5.1 8.0----30.13+0.04 41.7-----
2024-04-15 09:50 pmNNE 7.0 12.0----30.13- 42.4-----
2024-04-15 09:40 pmNNE 11.1 12.0----30.12- 42.6-----
2024-04-15 09:30 pmNNE 11.1 11.1----30.12- 42.6-----
2024-04-15 09:20 pm N 9.9 11.1----30.12- 43.0-----
2024-04-15 09:10 pm N 9.9 12.0----30.12- 43.3-----
2024-04-15 09:00 pm N 11.1 13.0----30.11+0.03 43.5-----
2024-04-15 08:50 pm N 9.9 12.0----30.11- 43.3-----
2024-04-15 08:40 pmNNE 8.0 8.9----30.11- 43.2-----
2024-04-15 08:30 pm N 9.9 13.0----30.11- 43.5-----
2024-04-15 08:20 pm N 11.1 14.0----30.11- 44.2-----
2024-04-15 08:10 pm N 13.0 15.9----30.10- 45.0-----
2024-04-15 08:00 pm N 14.0 17.1----30.10+0.05 45.3-----
2024-04-15 07:50 pm N 11.1 13.0----30.10- 44.8-----
2024-04-15 07:40 pm N 11.1 14.0----30.10- 45.5-----
2024-04-15 07:30 pm N 11.1 12.0----30.10- 46.0-----
2024-04-15 07:20 pm N 7.0 9.9----30.10- 48.0-----
2024-04-15 07:10 pm NW 4.1 7.0----30.09- 47.7-----
2024-04-15 07:00 pmWNW 2.9 6.0----30.09+0.06 46.9-----
2024-04-15 06:50 pm W 4.1 6.0----30.09- 46.6-----
2024-04-15 06:40 pm W 5.1 7.0----30.09- 46.6-----
2024-04-15 06:30 pmWSW 7.0 8.9----30.09- 47.1-----
2024-04-15 06:20 pmWSW 6.0 9.9----30.08- 47.8-----
2024-04-15 06:10 pm SW 6.0 9.9----30.08- 47.8-----
2024-04-15 06:00 pm SW 5.1 9.9----30.08+0.06 47.7-----
2024-04-15 05:50 pmWSW 7.0 8.9----30.07- 47.5-----
2024-04-15 05:40 pmWSW 7.0 8.9----30.07- 47.7-----
2024-04-15 05:30 pmWSW 6.0 7.0----30.06- 47.5-----
2024-04-15 05:20 pmWSW 5.1 7.0----30.06- 48.2-----
2024-04-15 05:10 pm W 5.1 6.0----30.05- 47.8-----
2024-04-15 05:00 pm W 4.1 6.0----30.05+0.05 48.9-----
2024-04-15 04:50 pmWSW 4.1 6.0----30.04- 48.9-----
2024-04-15 04:40 pmWSW 5.1 6.0----30.04- 48.9-----
2024-04-15 04:30 pmWSW 6.0 7.0----30.04- 49.5-----
2024-04-15 04:20 pmWSW 5.1 6.0----30.03- 48.9-----
2024-04-15 04:10 pmWSW 6.0 8.0----30.03- 50.4-----
2024-04-15 04:00 pmWSW 7.0 8.0----30.03+0.04 50.2-----
2024-04-15 03:50 pmWSW 6.0 9.9----30.03- 50.9-----